sat.trackr.live / text

‹ back to catalog

STARLINK-35555

NORAD 66425 · 2025-259D

PAYLOAD ACTIVE UNKNOWN

§ Identity

Operator
Country
US
Launch date
2025-11-11
Launch site
AFETR
Launch vehicle
Mass (kg)
RCS (m²)

Purposes: comms

External: N2YO · Heavens-Above · Gunter

§ Orbital elements

Epoch: 2026-05-25T05:03:39.314016Z

Period
94.27 min
Inclination
43.0004°
Eccentricity
0.0001391
Mean motion
15.27594246 rev/d
Perigee alt
482.1 km
Apogee alt
484.0 km
Semi-major
6,861.1 km
B*
7.8695e-4
RAAN
202.2477°
Arg perigee
258.9007°
Mean anomaly
101.1688°
Rev number
3,119

§ Raw data

STARLINK-355551 66425U 25259D   26145.21087169  .00021466  00000+0  78695-3 0  99942 66425  43.0004 202.2477 0001391 258.9007 101.1688 15.27594246 31199

JSON: /api/v1/satellites/66425 · /tle

For live sub-satellite position, see the globe view (requires WebGL).

§ Visibility from observer

Set your observer location to see the next 7 days of passes ≥ 10°. The values pass through the URL so the page stays shareable.

No JS? Fill the form by hand. The geolocation button needs JavaScript.